Weather Roundup
Issued by NWS

Home | Current Version | Previous Version | Text Only | Print | Product List | Glossary On
Versions: 1 2 3 4 5 6 7 8 9 10 11 12 13 14 15 16 17 18 19 20 21 22 23 24 25 26 27 28 29 30 31 32 33 34 35 36 37 38 39 40 41 42 43 44 45 46 47 48 49 50
000
NZUS93 KARX 231659
HRRWXR

CURRENT HOURLY OBSERVATIONS ACROSS
MUCH OF THE UPPER MISSISSIPPI VALLEY
NATIONAL WEATHER SERVICE LA CROSSE WI
1200 PM CDT THU MAR 23 2017


...SOUTHEAST MINNESOTA...


CITY           SKY/WX    TMP DP  RH WIND       PRES   REMARKS
ROCHESTER      CLOUDY    37  24  59 S21G29    30.07F WCI  26
ROCHESTER/MAYO CLOUDY    37  22  54 SE10G25   30.08F WCI  30
WINONA         CLOUDY    41  23  48 SE9       30.13F
AUSTIN         CLOUDY    36  27  69 S15G21    30.07R WCI  26
ALBERT LEA     CLOUDY    36  27  69 S17       30.03S WCI  25
DODGE CENTER   CLOUDY    36  27  69 S23G31    30.05F WCI  24
PRESTON        CLOUDY    37  22  55 S16G24    30.09S WCI  27
OWATONNA       CLOUDY    36  25  64 SE20G26   30.05R WCI  25
FARIBAULT      CLOUDY    37  27  65 SE15G24   30.05R WCI  28
$$

...ELSEWHERE IN MINNESOTA...


CITY           SKY/WX    TMP DP  RH WIND       PRES   REMARKS
MINNEAPOLIS    CLOUDY    39  23  52 S20G25    30.04F WCI  29
INTNL FALLS    CLOUDY    40  23  50 S10G22    29.92F WCI  33
DULUTH         CLOUDY    35  24  64 S14       30.03F WCI  26
RED WING       CLOUDY    39  19  45 SE14      30.08F WCI  31
REDWOOD FALLS  CLOUDY    43  27  53 SE25G35   29.93F
MANKATO        CLOUDY    39  27  62 SE23G30   30.01S WCI  28
WORTHINGTON    LGT RAIN  38  27  64 S15       29.91F WCI  29
FAIRMONT       CLOUDY    39  28  64 SE22G30   29.97F WCI  29
$$

...SOUTHWEST WISCONSIN...


CITY           SKY/WX    TMP DP  RH WIND       PRES   REMARKS
LA CROSSE      CLOUDY    41  21  44 S14       30.15F
PRAIRIE DU CHI CLOUDY    40  22  47 SE12G18   30.18F WCI  33
BOSCOBEL       CLOUDY    43  22  43 SE8       30.19F
LONE ROCK      NOT AVBL
PLATTEVILLE    CLOUDY    39  24  55 SE15      30.21F WCI  31
FORT MC COY    CLOUDY    39  22  50 S8G16     30.18F WCI  33
MAUSTON-NEW LI CLOUDY    38  24  55 SE12      30.20F WCI  31
VIROQUA        CLOUDY    37  22  55 SE17      30.14F WCI  27
WIS DELLS      CLOUDY    37  22  54 SE13      30.23F WCI  29
$$

...ELSEWHERE IN WISCONSIN...


CITY           SKY/WX    TMP DP  RH WIND       PRES   REMARKS
MILWAUKEE      PTSUNNY   40  22  48 S21       30.34F WCI  30
MADISON        CLOUDY    40  20  44 S16       30.24F WCI  31
GREEN BAY      CLOUDY    36  27  69 S16       30.29F WCI  26
EAU CLAIRE     NOT AVBL
BLACK RVR FLS  CLOUDY    40  18  40 S5        30.17F
MEDFORD        CLOUDY    32  21  62 SE15G22   30.15F WCI  22
WAUSAU         CLOUDY    35  21  56 SE17      30.19F WCI  25
WIS RAPIDS     CLOUDY    40  22  48 S13       30.21F WCI  32
MARSHFIELD     CLOUDY    35  21  56 S20G25    30.16F WCI  24
RICE LAKE      CLOUDY    35  24  64 SE12      30.12F WCI  26
$$

...NORTHEAST IOWA...


CITY           SKY/WX    TMP DP  RH WIND       PRES   REMARKS
WATERLOO       CLOUDY    39  25  57 SE18G31   30.10F WCI  30
DUBUQUE        CLOUDY    39  24  55 S23G30    30.19F WCI  28
DECORAH        CLOUDY    39  23  52 S15G25    30.11F WCI  31
MASON CITY     CLOUDY    37  26  64 SE22G31   30.06F WCI  26
CHARLES CITY   CLOUDY    37  25  60 SE23G29   30.09F WCI  26
OELWEIN        CLOUDY    39  27  60 SE21G28   30.12F WCI  29
$$

...ELSEWHERE IN IOWA...


CITY           SKY/WX    TMP DP  RH WIND       PRES   REMARKS
DES MOINES     CLOUDY    46  30  53 SE17      30.05F
IOWA CITY      CLOUDY    41  31  67 S16G23    30.20F
FORT DODGE     CLOUDY    43  27  52 SE15      30.01F
MARSHALLTOWN   CLOUDY    40  26  57 SE23G31   30.07F WCI  30
CEDAR RAPIDS   CLOUDY    39  28  64 S17G24    30.15F WCI  30
$$

...NORTHERN ILLINOIS...


CITY           SKY/WX    TMP DP  RH WIND       PRES   REMARKS
CHICAGO-OHARE  MOSUNNY   44  21  40 SE15      30.34F
CHICAGO-MIDWAY MOSUNNY   42  21  43 SE12      30.36F
MOLINE         CLOUDY    41  26  55 SE18      30.23F
ROCKFORD       PTSUNNY   46  21  37 S23G30    30.29F
PEORIA         CLOUDY    40  28  62 S16       30.29F WCI  31
$$

NOTE: "FAIR" INDICATES FEW OR NO CLOUDS BELOW 12,000 FEET WITH NO
SIGNIFICANT WEATHER AND/OR OBSTRUCTIONS TO VISIBILITY. WIND
SPEEDS ARE IN MILES-PER-HOUR.




USA.gov is the U.S. government's official web portal to all federal, state and local government web resources and services.